HODOYOSHI-3

Last updated on Sun Jun 21 2026 00:02:52 GMT+0000 (Coordinated Universal Time)

1 40015U 14033F 26171.41846669 .00000763 00000+0 93914-4 0 9997 2 40015 97.6421 334.3289 0032388 346.5693 13.4657 14.85393755648108
UTC large
Height (km)
Speed (km/s)
/
Latitude / Longitude
Inclination (degrees)
Orbital Period (minutes)
Azimuth
Elevation
Range (km)
Doppler Factor

Next 0 passes for location: London (51.5072 / 0.1276)

No passes found over London.
HODOYOSHI-3